This is the latest recevied weather packets stored in our database for station/object SQ7RAF-15. If no packets are shown the sender has not sent any weather packets the latest 1 day(s).
| Time | Temp. | Humidity | Pressure | Rain* | Wind** | Luminosity | Snow |
|---|---|---|---|---|---|---|---|
| 1778088024 | 22.22° C | 51% | 1004.7 hPa | 0 mm | - | 28 W/m² | - |
| 1778087128 | 22.78° C | 50% | 1004.8 hPa | 0 mm | - | 38 W/m² | - |
| 1778086520 | 22.78° C | 51% | 1004.7 hPa | 0 mm | - | 49 W/m² | - |
| 1778085320 | 22.22° C | 50% | 1004.8 hPa | 0 mm | - | 67 W/m² | - |
| 1778085032 | 22.22° C | 51% | 1004.8 hPa | 0 mm | - | 66 W/m² | - |
| 1778084744 | 22.22° C | 50% | 1004.8 hPa | 0 mm | - | 63 W/m² | - |
| 1778084136 | 22.22° C | 50% | 1004.8 hPa | 0 mm | - | 53 W/m² | - |
| 1778083528 | 22.78° C | 49% | 1004.8 hPa | 0 mm | - | 50 W/m² | - |
| 1778083240 | 22.78° C | 50% | 1004.8 hPa | 0 mm | - | 43 W/m² | - |
| 1778082920 | 22.78° C | 49% | 1004.9 hPa | 0 mm | - | 40 W/m² | - |
| 1778082632 | 22.78° C | 48% | 1004.9 hPa | 0 mm | - | 62 W/m² | - |
| 1778081736 | 23.33° C | 48% | 1005 hPa | 0 mm | - | 57 W/m² | - |
| 1778081449 | 23.89° C | 48% | 1004.9 hPa | 0 mm | - | 63 W/m² | - |
| 1778080841 | 23.33° C | 48% | 1004.9 hPa | 0 mm | - | 99 W/m² | - |
| 1778079944 | 23.33° C | 48% | 1005 hPa | 0 mm | - | 146 W/m² | - |
| 1778078440 | 24.44° C | 45% | 1005 hPa | 0 mm | - | 169 W/m² | - |
| 1778077832 | 24.44° C | 45% | 1005 hPa | 0 mm | - | 227 W/m² | - |
| 1778077544 | 25° C | 45% | 1005.1 hPa | 0 mm | - | 192 W/m² | - |
| 1778076920 | 25° C | 45% | 1005.1 hPa | 0 mm | - | 319 W/m² | - |
| 1778076633 | 25° C | 45% | 1005.1 hPa | 0 mm | - | 340 W/m² | - |
| 1778076331 | 24.44° C | 47% | 1005.1 hPa | 0 mm | - | 390 W/m² | - |
| 1778076026 | 24.44° C | 47% | 1005.1 hPa | 0 mm | - | 262 W/m² | - |
| 1778074536 | 23.89° C | 49% | 1005.1 hPa | 0 mm | - | 305 W/m² | - |
| 1778074248 | 23.89° C | 50% | 1005.1 hPa | 0 mm | - | 251 W/m² | - |
| 1778070648 | 23.89° C | 52% | 1005.2 hPa | 0 mm | - | 277 W/m² | - |
* Rain latest hour (hover to see other rain measurements)
** Current wind speed in m/s (hover to see current wind gust speed)